Location: Limerick
(52.6800°N, 8.6400°W)
Time: 11:44:36
(UTC+01:00)

Daily predictions for brighter satellites

Satellite Brightness Start Highest point End
(mag) Time Altitude Azimuth Time Altitude Azimuth Time Altitude Azimuth
Cosmos 676 Rocket 4.1 22:12:49 10° NNW 22:18:02 86° WSW 22:23:16 10° SSE
USA 229 DEB 4.2 22:14:49 10° NW 22:21:49 60° NNE 22:28:53 10° ESE
ARGOS 3.3 22:16:31 10° SSE 22:21:49 64° ENE 22:27:08 10° N
USA 229 4.2 22:14:55 10° NW 22:21:54 59° NNE 22:28:59 10° ESE
Nimbus 7 Rocket 4.4 22:17:57 10° NNE 22:23:53 73° ESE 22:29:50 10° S
Cosmos 1954 Rocket 4.0 22:19:56 10° NNW 22:25:11 87° ENE 22:30:24 10° SSE
Cosmos 1174 3.8 22:22:04 10° NW 22:25:34 52° SW 22:28:34 10° SSE
Cosmos 2056 Rocket 3.4 22:21:09 10° SSW 22:26:17 75° ESE 22:31:25 10° NNE
Cosmos 1908 Rocket 3.7 22:22:19 10° S 22:26:38 57° E 22:31:01 10° NNE
Cosmos 1378 Rocket 3.5 22:23:10 10° N 22:27:31 86° E 22:31:51 10° S
NOSS 2-2 (D) 3.9 22:24:12 10° SSW 22:28:21 52° SE 22:33:23 10° NE
Cosmos 1371 Rocket 4.2 22:23:05 10° SSW 22:28:25 83° WNW 22:33:43 10° NNE
SL-08 RB Rocket 3.9 22:25:16 10° SSE 22:29:47 60° ENE 22:34:23 10° N
Cosmos 1833 Rocket 3.6 22:24:41 10° NNW 22:29:59 40° NE 22:35:16 10° ESE
Cosmos 2278 Rocket 3.0 22:26:05 10° SSE 22:30:56 30° ESE 22:35:48 10° NE
USA 245 3.1 22:27:44 10° SSE 22:30:57 82° ENE 22:35:03 10° NNW
Coronas F rocket 3.1 22:29:16 10° SW 22:31:44 33° WNW 22:34:12 10° N
Cosmos 1733 Rocket 3.6 22:27:35 10° SSW 22:31:58 65° WNW 22:36:22 10° N
Cosmos 1741 Rocket 4.3 22:28:17 10° NNW 22:33:29 57° ENE 22:38:37 10° SE
Cosmos 1844 4.1 22:28:14 10° S 22:33:40 44° ESE 22:39:10 10° NE
Gbstr 26 Del rocket 3.3 22:34:06 10° W 22:39:38 82° S 22:44:06 10° E
Cosmos 1844 Rocket 2.7 22:36:39 10° SSW 22:42:14 64° ESE 22:47:50 10° NE
NOSS 2-2 (C) 3.7 22:38:45 10° SSW 22:42:59 67° SE 22:48:12 10° NE
Cosmos 2082 Rocket 2.6 22:38:44 10° NNW 22:44:24 57° NE 22:49:53 11° SE
Nadezhda 3 Rocket 4.3 22:39:19 10° NNW 22:45:39 71° W 22:51:58 10° S
Meteor 1-27 Rocket 4.2 22:40:43 10° NNW 22:46:16 60° W 22:51:41 10° S
Cosmos 1862 3.3 22:43:51 10° S 22:47:55 78° E 22:52:02 10° NNE
Cosmos 1184 Rocket 3.2 22:45:07 10° S 22:48:19 47° E 22:51:35 10° NNE
BREEZE-M DEB (TANK) 3.6 22:47:07 10° SW 22:50:10 48° SSE 22:58:30 10° E
Cosmos 2084 4.4 22:50:46 10° S 22:53:46 22° ESE 22:56:48 10° ENE
H-2A R/B 4.1 22:53:27 10° SSW 22:56:58 24° W 23:00:27 10° NW
Cosmos 2263 Rocket 4.0 22:52:38 10° WSW 22:57:51 36° NW 23:03:03 10° NNE
Cosmos 1825 2.2 22:54:49 10° S 22:58:39 88° E 23:02:30 10° NNE
COSMOS 2487 3.1 22:55:34 10° NNW 22:59:07 51° WSW 23:02:35 10° S
ATLAS 2AS CENTAUR R/B 4.4 22:52:46 10° WNW 23:00:20 40° N 23:07:51 10° ENE
NOSS 2-2 (E) 3.9 22:57:37 10° SW 23:02:03 88° NW 23:07:35 10° NE
Cosmos 1727 Rocket 4.3 22:55:59 10° N 23:02:05 56° ENE 23:07:32 13° SSE
Cosmos 1812 3.8 23:00:50 10° N 23:04:21 31° ENE 23:07:07 14° SE
CZ-4C R/B 3.3 23:04:20 13° SSE 23:07:50 89° W 23:11:58 10° NNW
H-2A R/B 2.2 23:03:45 12° SSE 23:08:52 82° ENE 23:14:12 10° NNW
Cosmos 1238 Rocket 3.8 23:06:17 10° NNW 23:09:01 32° W 23:12:00 10° SSW
Cosmos 2341 Rocket 4.1 23:03:10 10° S 23:09:29 84° W 23:15:48 10° N
Intercosmos 25 2.9 23:08:27 10° S 23:12:00 71° E 23:15:10 10° NNE
NOSS 3-1 (C) 4.5 23:05:09 10° NW 23:12:07 56° NNE 23:19:56 10° ESE
Landsat 7 3.9 23:08:21 11° SSE 23:12:52 80° WSW 23:17:40 10° NNW
YAOGAN 6 4.4 23:09:57 10° SSW 23:12:58 26° W 23:16:01 10° NW
Cosmos 1420 Rocket 4.3 23:09:20 10° S 23:14:23 49° ESE 23:19:25 10° NE
Cosmos 1408 3.0 23:10:48 10° SSW 23:14:27 62° WNW 23:18:05 10° N
Timation 2 Rocket 4.1 23:08:53 10° NW 23:14:53 65° WSW 23:20:05 14° SSE
Okean 2 Rocket 3.1 23:11:41 10° S 23:16:07 88° E 23:20:34 10° NNE
DELTA 2 DEB (DPAF) 4.4 23:16:09 12° S 23:20:15 69° WSW 23:24:44 10° NNW
ASTEX 1 4.1 23:19:13 10° NNE 23:23:50 38° E 23:27:12 17° SSE
Cosmos 1242 Rocket 3.5 23:21:16 10° NNW 23:24:43 42° W 23:28:03 11° SSW
USA 234 3.7 23:20:46 10° ENE 23:26:50 39° SE 23:32:51 10° SSW
Spot 4 3.9 23:24:00 16° SSE 23:27:55 82° ENE 23:32:48 10° NNW
Terra 1.9 23:24:38 15° SSE 23:28:37 80° WSW 23:33:25 10° NNW
Cosmos 1452 Rocket 3.7 23:24:18 10° SSW 23:29:34 77° WNW 23:34:54 10° NNE
Cosmos 614 Rocket 4.2 23:25:47 10° NNW 23:30:50 62° WSW 23:34:52 16° S
Cosmos 1140 Rocket 4.4 23:28:36 10° NW 23:33:25 41° WSW 23:37:52 12° S
SL-8 Rocket 4.0 23:28:39 10° S 23:34:57 88° W 23:41:14 10° N
IGS 5A 3.7 23:35:49 17° S 23:38:59 68° WSW 23:43:10 10° NNW
Cosmos 1782 Rocket 4.5 23:34:50 10° SSW 23:39:10 49° WNW 23:43:33 10° N
Okean 1 3.4 23:40:57 10° N 23:45:00 70° ENE 23:47:28 23° SSE
AVUM R/B 3.4 23:42:04 10° NNW 23:45:36 84° ENE 23:47:31 25° SE
Meteor 1-25 Rocket 4.4 23:41:09 16° S 23:45:51 62° E 23:51:36 10° NNE
CZ-4B R/B 4.3 23:41:54 10° N 23:46:48 51° WNW 23:51:32 10° SW
Meteor 1-18 Rocket 4.5 23:40:57 10° NNW 23:46:50 76° W 23:51:32 17° S
DMSP B5D2-2 4.0 23:44:06 10° NNE 23:49:21 78° ESE 23:53:57 14° S
NOSS 5 (C) 4.1 23:50:30 10° SW 23:53:40 89° NNW 23:56:53 10° NE
Meteor 1-14 Rocket 4.3 23:48:12 10° SSW 23:53:54 79° WNW 23:59:31 10° NNE
SAR-Lupe-2 4.0 23:54:00 21° S 23:56:09 54° WSW 23:59:41 10° NNW
